Columbus Municipal (BAK)

 

Airport Diagram
Current Weather/Forecast (VFR Conditions)
METAR KBAK 211345Z 24005KT 10SM CLR 00/M01 A2989
TAF

Airport Information

All Charts
General
Chart Name View
AIRPORT DIAGRAM
AIRPORT DIAGRAM
TAKEOFF MINIMUMS
ALTERNATE MINIMUMS
TAKEOFF MINIMUMS
ALTERNATE MINIMUMS
HOT SPOT
HOT SPOT

Approaches
Chart Name Download
ILS OR LOC RWY 23
RNAV (GPS) RWY 05
RNAV (GPS) RWY 14
RNAV (GPS) RWY 23
RNAV (GPS) RWY 32
ILS OR LOC RWY 23
RNAV (GPS) RWY 05
RNAV (GPS) RWY 14
RNAV (GPS) RWY 23
RNAV (GPS) RWY 32


Airport Statistics
Departures Arrivals Local
All Collected Stats since June 2016: 24 21 2
2021 Stats: 0 1 0
January Stats: 0 1 0

Inbound Traffic (Arrivals) - 0

No inbound traffic.


Outbound Traffic (Departures) - 0

No outbound traffic.


Local Traffic (Pattern) - 0

No local traffic.